Вернуться в каталог

STARLINK-6040

АктивенСвязьVLEO
NORAD 56809·PAYLOAD·🇺🇸 United States

Запущен May 31, 2023 с Vandenberg Space Force Base

Loading…

Ближайшие Пролёты (ближайшие 24 часа)

TLE

СвежийSource: CelesTrak SupGP

Эпоха: Sep 14, 2026, 21:07 UTC

1 56809C 23078AU  26257.88034722  .00034114  00000+0  28585-2 0  2573
2 56809  70.0012 227.2845 0003487 264.7752  69.3361 14.98318601    15

Отслеживайте STARLINK-6040 в реальном времени с AllMySat

Download on the App Store